• Join FlightAware (Why Join?)
  • Login
  • US Flag 
04:22PM EDT


 

Airport Tracker/Info


-or-


 

Live Flight TrackerFlight Track Log ✈ DAL268 ✈ 22-Apr-2013 ✈ KATL - KJFK

Flight Track Log - Related Links

Times and Time Zones

All times are in EDT time to prevent confusion due to time zone crossing. See the DAL268 flight status page for this flight to view local times or setup timezone preferences in your user account.

Time Position Orientation Groundspeed Altitude Reporting Facility
EDT Latitude Longitude Course Direction KTS MPH feet Rate Location/Type
07:37PM 33.6333 -84.4000 101° East 173 199 2,200  Level Atlanta TRACON
07:38PM 33.6333 -84.3333 90° East 228 262 3,300 1,800 Climbing Atlanta TRACON
07:39PM 33.6333 -84.2500 90° East 268 308 5,700 2,460 Climbing Atlanta TRACON
07:40PM 33.7082 -83.9822 101° East  Level FlightAware Approximate
07:40PM 33.6333 -84.1500 90° East 287 330 8,300  Level Atlanta TRACON
07:41PM 33.6838 -83.8356 101° East  Level FlightAware Approximate
07:41PM 33.6356 -84.0539 88° East 298 343 9,000  Level Atlanta Center
07:42PM 33.6593 -83.6891 101° East  Level FlightAware Approximate
07:42PM 33.6419 -83.9514 86° East 298 343 10,400  Level Atlanta Center
07:43PM 33.6500 -83.8367 85° East 327 376 11,800 1,680 Climbing Atlanta Center
07:44PM 33.6561 -83.7269 86° East 355 409 13,800 2,040 Climbing Atlanta Center
07:45PM 33.6767 -83.5969 79° East 377 434 15,900 1,680 Climbing Atlanta Center
07:46PM 33.7283 -83.4744 63° Northeast 390 449 17,200 1,320 Climbing Atlanta Center
07:47PM 33.7797 -83.3464 64° Northeast 408 470 18,600 1,440 Climbing Atlanta Center
07:48PM 33.8353 -83.2111 64° Northeast 431 496 20,100 1,500 Climbing Atlanta Center
07:49PM 33.8928 -83.0703 64° Northeast 454 522 21,700 1,500 Climbing Atlanta Center
07:50PM 33.9500 -82.9294 64° Northeast 461 531 23,100 1,320 Climbing Atlanta Center
07:51PM 34.0069 -82.7833 65° Northeast 469 540 24,400 1,500 Climbing Atlanta Center
07:52PM 34.0678 -82.6244 65° Northeast 469 540 26,100 1,500 Climbing Atlanta Center
07:53PM 34.1144 -82.5083 64° Northeast 469 540 27,400 1,320 Climbing Atlanta Center
07:54PM 34.1772 -82.3514 64° Northeast 469 540 28,800 1,200 Climbing Atlanta Center
07:55PM 34.2314 -82.2072 66° East 464 534 29,800 840 Climbing Atlanta Center
07:56PM 34.2961 -82.0675 61° Northeast 464 534 30,500 600 Climbing Atlanta Center
07:57PM 34.3647 -81.9300 59° Northeast 469 540 31,100 660 Climbing Atlanta Center
07:59PM 34.4447 -81.7591 60° Northeast  Level FlightAware Approximate
07:59PM 34.5056 -81.6517 60° Northeast 479 551 32,600  Level Atlanta Center
08:00PM 34.5739 -81.5086 60° Northeast 479 551 33,000 180 Climbing Atlanta Center
08:01PM 34.6419 -81.3725 59° Northeast 479 551 33,000  Level Atlanta Center
08:02PM 34.7117 -81.2289 59° Northeast 479 551 33,000  Level Atlanta Center
08:03PM 34.7794 -81.0875 60° Northeast 479 551 33,000  Level Atlanta Center
08:04PM 34.8508 -80.9433 59° Northeast 479 551 33,000  Level Atlanta Center
08:05PM 34.9183 -80.8039 59° Northeast 485 558 33,000  Level Atlanta Center
08:06PM 34.9875 -80.6619 59° Northeast 485 558 33,000  Level Atlanta Center
08:08PM 35.1258 -80.3661 60° Northeast 501 577 33,000  Level Washington Center
08:09PM 35.1964 -80.2203 59° Northeast 496 571 33,000  Level Washington Center
08:10PM 35.2667 -80.0744 59° Northeast 496 571 33,000  Level Washington Center
08:11PM 35.3433 -79.9156 59° Northeast 488 562 33,000  Level Washington Center
08:12PM 35.4111 -79.7717 60° Northeast 488 562 33,000  Level Washington Center
08:13PM 35.4789 -79.6247 60° Northeast 488 562 33,000  Level Washington Center
08:14PM 35.5461 -79.4800 60° Northeast 488 562 33,000  Level Washington Center
08:15PM 35.6019 -79.3653 59° Northeast 488 562 33,000  Level Washington Center
08:16PM 35.6847 -79.1900 60° Northeast 488 562 33,000  Level Washington Center
08:17PM 35.7558 -79.0422 59° Northeast 493 567 33,000  Level Washington Center
08:18PM 35.8247 -78.8942 60° Northeast 493 567 33,000  Level Washington Center
08:19PM 35.8789 -78.7425 66° East 486 559 33,000  Level Washington Center
08:20PM 35.8956 -78.5817 83° East 472 543 33,000  Level Washington Center
08:21PM 35.9119 -78.4208 83° East 472 543 33,000  Level Washington Center
08:22PM 35.9281 -78.2597 83° East 472 543 33,000  Level Washington Center
08:23PM 35.9419 -78.0986 84° East 472 543 33,000  Level Washington Center
08:24PM 35.9578 -77.9375 83° East 472 543 33,000  Level Washington Center
08:25PM 35.9733 -77.7761 83° East 472 543 33,000  Level Washington Center
08:26PM 36.0281 -77.6286 65° Northeast 460 529 33,000  Level Washington Center
08:27PM 36.0972 -77.4814 60° Northeast 473 544 33,000  Level Washington Center
08:28PM 36.1081 -77.3222 85° East 459 528 33,000  Level Washington Center
08:29PM 36.1039 -77.1833 92° East 443 510 33,000  Level Washington Center
08:30PM 36.0892 -77.0133 96° East 443 510 33,000  Level Washington Center
08:31PM 36.0783 -76.8592 95° East 443 510 33,000  Level Washington Center
08:32PM 36.0717 -76.7047 93° East 443 510 33,000  Level Washington Center
08:33PM 36.0647 -76.5453 93° East 449 517 33,000  Level Washington Center
08:34PM 36.1033 -76.3914 73° East 449 517 33,000  Level Washington Center
08:35PM 36.2103 -76.2819 40° Northeast 449 517 33,000  Level Washington Center
08:36PM 36.3483 -76.2211 20° North 463 533 33,000  Level Washington Center
08:37PM 36.4864 -76.1628 19° North 494 568 33,000  Level Washington Center
08:38PM 36.6244 -76.1069 18° North 506 582 33,000  Level Washington Center
08:39PM 36.7581 -76.0456 20° North 511 588 33,000  Level Washington Center
08:40PM 36.8981 -75.9842 19° North 519 597 33,000  Level Washington Center
08:41PM 37.0256 -75.9300 19° North 524 603 33,000  Level Washington Center
08:42PM 37.1614 -75.8708 19° North 524 603 33,000  Level Washington Center
08:43PM 37.2992 -75.8086 20° North 524 603 33,000  Level Washington Center
08:44PM 37.4347 -75.7489 19° North 524 603 33,000  Level Washington Center
08:45PM 37.5725 -75.6889 19° North 524 603 33,000  Level Washington Center
08:46PM 37.7081 -75.6233 21° North 524 603 33,000  Level Washington Center
08:47PM 37.8458 -75.5656 18° North 524 603 33,000  Level Washington Center
08:48PM 37.9853 -75.5047 19° North 524 603 33,000  Level Washington Center
08:49PM 38.1189 -75.4333 23° Northeast 524 603 33,000  Level Washington Center
08:50PM 38.2481 -75.3511 27° Northeast 524 603 33,000  Level Washington Center
08:51PM 38.3811 -75.2606 28° Northeast 524 603 33,000  Level Washington Center
08:52PM 38.5122 -75.1806 26° Northeast 524 603 33,000  Level Washington Center
08:53PM 38.6433 -75.0919 28° Northeast 524 603 33,000  Level Washington Center
08:54PM 38.7764 -75.0086 26° Northeast 524 603 33,000 -840 Level Washington Center
08:55PM 38.9072 -74.9247 27° Northeast 529 609 31,400 -2,520 Descending Washington Center
08:56PM 39.0400 -74.8406 26° Northeast 529 609 28,000 -3,000 Descending Washington Center
08:57PM 39.1644 -74.7350 33° Northeast 529 609 25,400 -2,220 Descending Washington Center
08:58PM 39.2697 -74.6158 41° Northeast 523 602 23,600 -1,680 Descending Washington Center
08:59PM 39.3669 -74.5097 40° Northeast 490 564 22,100 -1,800 Descending Washington Center
09:01PM 39.5692 -74.2908 40° Northeast 416 479 18,000 -1,320 Descending New York Center
09:02PM 39.6489 -74.2031 40° Northeast 384 442 18,000 -240 Level New York Center
09:03PM 39.7286 -74.1153 40° Northeast 377 434 17,600 -1,620 Descending New York Center
09:04PM 39.8017 -74.0375 39° Northeast 370 426 14,800 -2,940 Descending New York Center
09:05PM 39.8956 -73.9556 34° Northeast 370 426 11,900 -1,920 Descending New York Center
09:06PM 39.9806 -73.8917 30° Northeast 360 414 11,000 -480 Descending New York Center
09:07PM 40.0550 -73.8381 29° Northeast 320 368 11,000 -480 Level New York Center
09:08PM 40.1253 -73.7814 32° Northeast 299 344 10,100 -1,320 Descending New York Center
09:09PM 40.1833 -73.7500 22° Northeast 289 333 8,700 -1,680 Descending New York TRACON
09:10PM 40.2333 -73.7833 333° Northwest 283 326 7,400 -1,320 Descending New York TRACON
09:11PM 40.3000 -73.8500 323° Northwest 262 302 6,200 -1,140 Descending New York TRACON
09:11PM 40.3081 -73.8819 288° West 244 281 5,900 -1,380 Descending New York Center
09:12PM 40.3394 -73.9569 299° West 244 281 4,400 -960 Descending New York Center
09:13PM 40.3906 -73.9972 329° Northwest 218 251 4,000 -780 Descending New York Center
09:14PM 40.4333 -74.0000 357° North 220 253 3,200 -600 Descending New York TRACON
09:15PM 40.4833 -74.0000 360° North 203 234 3,100 -60 Descending New York TRACON
09:16PM 40.5333 -73.9667 27° Northeast 173 199 3,100 -540 Level New York TRACON
09:17PM 40.5667 -73.9333 37° Northeast 163 188 2,100 -840 Descending New York TRACON
09:18PM 40.6000 -73.9000 37° Northeast 155 178 1,500 -600 Descending New York TRACON
09:19PM 40.6333 -73.8833 21° North 137 158 1,000 -540 Descending New York TRACON